Location: Logan
(41.7360°N, 111.8340°W)
Time: 02:34:02
(UTC-07:00)

Daily predictions for brighter satellites

Satellite Brightness Start Highest point End
(mag) Time Altitude Azimuth Time Altitude Azimuth Time Altitude Azimuth
Lacrosse 5 4.5 04:15:17 16° ENE 04:15:17 16° ENE 04:16:35 10° E
CENTAUR R/B 3.6 04:49:43 36° NNE 04:49:43 36° NNE 04:53:55 10° NNE
COSMO-SKYMED 1 3.3 05:17:23 10° SSE 05:21:35 50° ENE 05:22:05 48° NE
CZ-4C R/B 3.8 05:20:10 22° NNW 05:24:29 44° NE 05:31:59 10° ESE
Cosmos 407 Rocket 3.3 05:30:14 75° SSW 05:30:41 87° WNW 05:35:58 10° NNE
DELTA 2 R/B (1) 3.5 05:31:25 67° SW 05:31:57 72° S 05:37:32 10° E
Cosmos 676 Rocket 4.4 05:28:15 10° S 05:33:20 62° ESE 05:38:28 10° NNE
Nadezhda 1 Rocket 3.9 05:32:25 48° NW 05:34:01 63° W 05:40:18 10° S
COSMOS 2455 2.7 05:34:27 62° W 05:34:51 64° WNW 05:40:52 10° NNE
CZ-2C R/B 3.5 05:30:55 10° NNE 05:35:15 40° E 05:39:38 10° SSE
Cosmos 1470 3.2 05:31:23 10° S 05:35:18 62° E 05:39:16 10° NNE
NOAA 6 4.1 05:33:47 10° NNE 05:39:00 79° ESE 05:44:11 10° S
Abrixas rocket 4.5 05:43:12 18° NE 05:43:12 18° NE 05:44:35 10° NE
Cosmos 2263 Rocket 3.8 05:44:47 19° NNW 05:44:47 19° NNW 05:46:50 10° N
Cosmos 1400 Rocket 3.1 05:41:20 50° NNE 05:42:16 70° E 05:46:22 10° SSE
Cosmos 1954 Rocket 4.2 05:41:11 10° S 05:46:17 69° ESE 05:51:27 10° NNE
BREEZE-M DEB (TANK) 4.2 05:47:24 29° N 05:47:52 30° NNE 05:53:50 10° E
Landsat 4 3.8 05:44:42 10° SSE 05:48:04 68° S 05:48:04 68° S
Cosmos 1140 Rocket 3.7 05:44:11 10° S 05:49:15 68° ESE 05:54:22 10° NNE
H-2A R/B 4.5 05:44:42 27° WSW 05:51:14 59° S 07:10:16 10° ESE
SKYMED 3 4.4 05:47:13 10° S 05:51:32 75° WSW 05:52:25 55° NW
ISS -2.5 05:53:09 33° SSE 05:53:09 33° SSE 05:55:14 10° SE
PSLV R/B 4.3 05:53:01 37° SSE 05:53:01 37° SSE 05:55:12 10° ESE
PAYLOAD A 3.8 05:47:36 10° NNE 05:52:36 89° ESE 05:57:23 10° SSW
Meteor 2-13 Rocket 4.3 05:48:04 10° S 05:54:11 83° W 06:00:20 10° N
Lacrosse 5 1.7 05:54:30 50° WNW 05:55:45 75° SW 06:00:46 10° SE
Cosmos 2278 Rocket 3.9 05:54:10 10° SSE 05:59:10 33° ESE 06:04:12 10° NE
BREEZE-M DEB (TANK) 4.2 05:59:29 21° SSW 06:02:03 62° SE 06:13:20 10° ENE
Cosmos 2181 Rocket 3.9 06:00:02 10° N 06:06:21 83° W 06:12:33 10° S
SKYMED 2 3.8 06:05:29 10° S 06:09:39 46° W 06:10:42 38° WNW
Cosmos 1023 Rocket 4.3 06:05:38 10° SSW 06:10:42 76° WNW 06:15:49 10° NNE
MSX 3.8 06:08:53 10° NNE 06:14:40 86° ESE 06:20:24 10° SSW
Cosmos-2242 3.4 06:15:46 10° S 06:20:03 64° E 06:24:20 10° NNE
Cosmos 1844 Rocket 2.7 06:18:19 10° SW 06:23:45 54° WNW 06:29:14 10° NNE
Meteor 1-16 Rocket 4.2 06:20:32 10° S 06:26:14 85° E 06:31:47 10° N
Cosmos 1844 3.7 06:22:30 10° SSW 06:28:14 67° WNW 06:33:56 10° NNE
Cosmos 332 Rocket 3.8 06:25:26 10° NNW 06:30:22 84° ENE 06:35:15 10° SSE
SL-14 R/B 3.5 06:30:56 14° NNW 06:33:57 44° W 06:37:36 10° SSW
Cosmos 1741 Rocket 4.1 06:28:53 10° SSW 06:34:09 81° ESE 06:39:25 10° NNE
IDEFIX/ARIANE 42P 3.0 06:30:43 10° N 06:35:34 38° WNW 06:40:24 10° SW
Tiangong 2 3.9 06:36:28 10° SSW 06:38:44 18° SSE 06:41:01 10° ESE
COSMOS 2406 3.4 06:33:59 12° NW 06:39:03 52° WSW 06:44:31 10° S
CENTAUR R/B 4.1 06:36:55 15° NW 06:39:25 19° NNW 06:44:17 10° NNE
Cosmos 2082 Rocket 3.7 06:35:31 10° N 06:40:35 33° ENE 06:45:37 10° ESE
Okean-O 3.5 06:37:31 10° N 06:41:15 27° WNW 06:44:58 10° SW
Cosmos 1484 Rocket 2.7 06:38:15 10° NNE 06:42:00 87° ESE 06:45:44 10° SSW
Cosmos 1315 Rocket 3.1 06:39:48 10° NNW 06:43:34 44° W 06:47:21 10° SSW
SJ-12 4.0 06:39:37 10° N 06:43:37 52° WNW 06:47:37 10° SSW
Okean 3 Rocket 4.2 06:41:12 10° NNW 06:45:13 34° W 06:49:10 10° SSW
Cosmos 2327 Rocket 4.5 06:40:18 10° S 06:46:32 86° W 06:52:43 10° N
Ariane Rocket 3.7 06:41:35 10° NNE 06:46:38 60° ESE 06:51:40 10° S
Shenzhou-11 Module 2.6 06:44:33 12° WSW 06:47:11 54° SSE 06:50:08 10° E
Cosmos 1076 Rocket 4.3 06:46:25 10° NNW 06:50:13 30° W 06:53:59 10° SSW
ATLAS CENTAUR R/B 2.5 06:46:58 10° NNW 06:50:49 42° NE 06:54:54 10° SE
Cosmos 2151 3.6 06:50:58 10° N 06:55:15 61° E 06:59:30 10° SSE
Cosmos 1766 Rocket 3.8 06:51:15 10° NNW 06:55:28 48° W 06:59:42 10° SSW
Milstar 3 4.4 06:51:07 10° SW 06:56:38 26° S 07:02:18 10° ESE
COSMO-SKYMED 1 4.2 06:55:38 10° SW 06:58:01 14° W 06:59:18 13° WNW
Thor Agena Rocket 3.7 06:58:53 10° S 07:03:59 58° WSW 07:09:12 10° NNW
Cosmos 2058 3.0 07:01:59 10° N 07:06:14 88° E 07:10:26 10° S
Cosmos 2208 Rocket 4.1 07:00:55 10° NNW 07:06:21 73° WSW 07:11:47 10° S
Cosmos 2184 Rocket 4.2 07:02:31 10° SSW 07:08:33 52° WNW 07:14:42 10° N
Cosmos 1626 2.7 07:05:41 10° NNW 07:09:09 37° W 07:12:37 10° SSW
Cosmos 1726 3.8 07:07:00 10° SSE 07:10:29 38° E 07:13:58 10° NNE
YAOGAN 1 3.0 07:08:29 10° NNE 07:12:49 67° ESE 07:17:07 10° S
CZ-2C R/B 3.4 07:09:52 10° NNW 07:13:15 21° WNW 07:16:39 10° WSW
CZ-4C R/B 3.3 07:06:15 10° NW 07:13:16 49° WSW 07:20:56 10° S
Cosmos 1842 Rocket 3.6 07:12:10 10° S 07:16:37 78° W 07:21:07 10° N
DELTA 2 R/B (1) 4.1 07:12:45 10° W 07:18:12 54° SSW 07:23:37 10° ESE
Cosmos 371 Rocket 3.9 07:13:48 10° NW 07:18:17 37° WSW 07:22:44 10° SSW
Abrixas rocket 3.2 07:15:55 10° NW 07:18:58 36° NNE 07:22:01 10° E
Centaur D-1A AC-31 4.0 07:13:57 10° SW 07:19:04 34° SSE 07:39:18 10° ESE
Cosmos 1833 Rocket 3.0 07:14:22 10° NNW 07:20:02 70° ENE 07:25:39 10° SSE
COSMOS 2455 4.5 07:18:48 10° WNW 07:22:01 15° NW 07:25:16 10° N
METEOR-M 4.3 07:17:34 10° NNE 07:22:58 82° ESE 07:28:17 10° SSW
IRAS Rocket 4.3 07:17:26 10° NNE 07:23:06 86° WNW 07:28:44 10° SSW
